We konden geen weer-waarchuwingen ophalen. Ga rechtstreeks naar de Meteoalarm site : www.meteoalarm.eu en controleer daar .



Onweer radar Meer informatie blitzortung!


Regen radar Meer informatie rain snow radar


Bezoek onze andere website:

Template documentation
and downloads

And another site



15 daagse weersverwachting Alkmaar (NL)

  • Overzicht
  • Per uur
  • 15 dagen
  • Extra
  • Vergelijk
  • Kaarten
  • Dagkaart
  • Meer »
  • Info
  • Statistieken
  • Directe link
    Temp 6h Neerslag Wind  
 06:29     21:02    Daglengte: 14:33 Vandaag
14:00
21°
1.8 mm
4
20:00
20°
22.7 mm
3
warningclass
 06:30     21:00    Daglengte: 14:30 Morgen
02:00
18°
 
2
08:00
18°
 
2
14:00
23°
 
2
20:00
21°
 
3
 06:32     20:58    Daglengte: 14:26 Vrijdag 19 Aug
02:00
17°
 
1
08:00
18°
 
2
14:00
22°
23.6 mm
5
20:00
19°
31.9 mm
3
 06:34     20:56    Daglengte: 14:22 Zaterdag 20 Aug
02:00
16°
 
1
08:00
17°
 
2
Locatie info
Region: Noord-Holland
Latitude: 52.6328°N
Longitude: 4.7518°E
5 masl
Postcode: 1811
Temp/Neerslag /Baro Onweer/Dauwpunt
    Temp Baro 1h Neerslag Dauwpunt Wind UV Bewolking  
 06:29     21:02    Daglengte: 14:33 Vandaag
14:00
21°
1012.1 hPa 1.8 mm
48%
19.6°
4
Windvlaag: -3.4 m/s
86%
15:00
21°
1012.2 hPa 3.1 mm
82%
19.8°
4
Windvlaag: -3.6 m/s
86%
16:00
21°
1012.1 hPa 4.4 mm
80%
19.7°
3
Windvlaag: -2.4 m/s
86%
17:00
21°
1012.0 hPa 5.2 mm
82%
19.4°
4
Windvlaag: -1.6 m/s
75% warningclass
18:00
20°
1011.9 hPa 5.0 mm
82%
18.6°
4
Windvlaag: -1.3 m/s
86%
19:00
20°
1011.9 hPa 5.0 mm
82%
18.5°
4
Windvlaag: -1.3 m/s
70% warningclass
20:00
20°
1012.0 hPa
82%
18.1°
3
Windvlaag: -1.4 m/s
66% warningclass
21:00
19°
1012.4 hPa
82%
17.9°
3
Windvlaag: -1.6 m/s
64%
22:00
19°
1012.7 hPa
79%
17.5°
3
Windvlaag: -1.1 m/s
58%
23:00
18°
1013.0 hPa
69%
17.3°
3
Windvlaag: -1 m/s
62%
 06:30     21:00    Daglengte: 14:30 Morgen
00:00
18°
1013.1 hPa
36%
17.2°
2
Windvlaag: -0.4 m/s
55%
01:00
18°
1013.0 hPa
66%
16.9°
2
Windvlaag: -0.9 m/s
48%
02:00
18°
1012.8 hPa
72%
16.9°
2
Windvlaag: -1.4 m/s
83%
03:00
18°
1012.8 hPa
37%
17.0°
2
Windvlaag: -1.2 m/s
62%
04:00
18°
1012.6 hPa
28%
16.7°
2
Windvlaag: -1 m/s
56%
05:00
18°
1012.5 hPa
63%
16.6°
2
Windvlaag: 0.1 m/s
46%
06:00
18°
1012.4 hPa
17%
16.9°
2
Windvlaag: -2.1 m/s
33%
07:00
17°
1012.7 hPa
19%
16.9°
1
Windvlaag: -2.5 m/s
51%
08:00
18°
1012.9 hPa
19%
16.8°
2
Windvlaag: -2.2 m/s
34%
09:00
19°
1013.0 hPa
17%
16.7°
2
Windvlaag: -2.4 m/s
36%
10:00
20°
1013.4 hPa
21%
17.1°
3
Windvlaag: -3.7 m/s
14%
11:00
20°
1013.5 hPa
19%
17.0°
3
Windvlaag: -3.8 m/s
10%
12:00
21°
1013.6 hPa
20%
16.8°
3
Windvlaag: -3.4 m/s
23%
13:00
22°
1013.6 hPa
20%
16.8°
3
Windvlaag: -3.3 m/s
19%
14:00
23°
1013.5 hPa
56%
17.2°
2
Windvlaag: -3.1 m/s
8%
15:00
23°
1013.3 hPa
18%
17.3°
3
Windvlaag: -3.5 m/s
26%
16:00
23°
1013.1 hPa
55%
16.9°
4
Windvlaag: -3.7 m/s
5%
17:00
23°
1013.1 hPa
22%
16.7°
4
Windvlaag: -3.8 m/s
2%
18:00
23°
1013.1 hPa
22%
16.7°
3
Windvlaag: -3.3 m/s
3%
19:00
22°
1013.1 hPa
14%
16.4°
3
Windvlaag: -2.7 m/s
4%
20:00
21°
1013.0 hPa
14%
16.2°
3
Windvlaag: -2.4 m/s
9%
21:00
20°
1013.4 hPa
14%
15.4°
2
Windvlaag: -2.1 m/s
10%
22:00
19°
1013.6 hPa
14%
15.2°
2
Windvlaag: -0.3 m/s
7%
23:00
18°
1013.7 hPa
14%
14.9°
1
Windvlaag: 0.4 m/s
5%
 06:32     20:58    Daglengte: 14:26 Vrijdag 19 Aug
00:00
18°
1013.7 hPa
14%
14.8°
1
Windvlaag: 0.8 m/s
5%
01:00
17°
1013.6 hPa
14%
15.1°
1
Windvlaag: 1.1 m/s
4%
02:00
17°
1013.6 hPa
14%
15.2°
1
Windvlaag: 1.2 m/s
4%
03:00
16°
1013.6 hPa
14%
15.0°
1
Windvlaag: 1.7 m/s
28%
04:00
16°
1013.5 hPa
14%
15.2°
2
Windvlaag: 2 m/s
54%
05:00
16°
1013.4 hPa
14%
15.6°
2
Windvlaag: 2.4 m/s
40%
06:00
17°
1013.4 hPa
14%
16.4°
2
Windvlaag: 6.2 m/s
37%
07:00
17°
1013.6 hPa
14%
16.7°
2
Windvlaag: 5.7 m/s
22%
08:00
18°
1013.8 hPa
14%
16.6°
2
Windvlaag: 6.2 m/s
20%
09:00
19°
1014.0 hPa
14%
16.5°
3
Windvlaag: 6.5 m/s
40%
10:00
21°
1014.1 hPa
17%
17.6°
4
Windvlaag: 5.3 m/s
33%
11:00
22°
1013.7 hPa 7.8 mm
98%
17.3°
4
Windvlaag: 4.5 m/s
74%
12:00
22°
1013.8 hPa 7.8 mm
97%
17.1°
5
Windvlaag: 4.2 m/s
78%
13:00
22°
1013.8 hPa
97%
17.3°
5
Windvlaag: 3.7 m/s
70%
14:00
22°
1014.0 hPa 7.9 mm
100%
17.5°
5
Windvlaag: 2.9 m/s
74%
15:00
21°
1014.1 hPa 8.0 mm
100%
17.5°
5
Windvlaag: 2.8 m/s
89%
16:00
21°
1014.0 hPa 7.9 mm
100%
17.9°
5
Windvlaag: 0 m/s
88%
17:00
21°
1013.9 hPa 8.1 mm
100%
16.7°
4
Windvlaag: -0.3 m/s
85%
18:00
20°
1014.0 hPa 7.8 mm
100%
17.3°
4
Windvlaag: -1.1 m/s
78%
19:00
20°
1014.1 hPa
100%
16.4°
4
Windvlaag: -1.3 m/s
64%
20:00
19°
1014.5 hPa
37%
15.7°
3
Windvlaag: -1.5 m/s
32%
21:00
19°
1015.2 hPa
35%
16.1°
2
Windvlaag: -2.3 m/s
37%
22:00
18°
1015.5 hPa
32%
15.1°
2
Windvlaag: -1.9 m/s
12%
23:00
17°
1015.5 hPa
34%
13.6°
1
Windvlaag: -2 m/s
0%
 06:34     20:56    Daglengte: 14:22 Zaterdag 20 Aug
00:00
16°
1015.7 hPa
38%
12.6°
1
Windvlaag: -0.8 m/s
4%
01:00
16°
1015.8 hPa
44%
11.9°
1
Windvlaag: 1.3 m/s
18%
02:00
16°
1015.5 hPa
45%
11.6°
1
Windvlaag: 1.3 m/s
19%
03:00
15°
1015.5 hPa
32%
11.2°
1
Windvlaag: 1.7 m/s
13%
04:00
15°
1015.7 hPa
21%
11.1°
1
Windvlaag: 2 m/s
9%
05:00
15°
1015.6 hPa
21%
11.4°
2
Windvlaag: 2.4 m/s
0%
06:00
16°
1014.6 hPa
21%
13.4°
2
Windvlaag: 2.6 m/s
0%
07:00
16°
1015.0 hPa
21%
12.9°
2
Windvlaag: 2.6 m/s
0%
08:00
17°
1015.2 hPa
21%
13.5°
2
Windvlaag: 2.7 m/s
0%
09:00
19°
1015.4 hPa
21%
13.1°
3
Windvlaag: 4.8 m/s
0%
10:00
20°
1015.3 hPa
26%
13.7°
4
Windvlaag: 4.6 m/s
3%
11:00
21°
1015.3 hPa
25%
13.8°
5
Windvlaag: 4.8 m/s
5%
12:00
22°
1015.1 hPa
27%
13.0°
5
Windvlaag: 5.5 m/s
1%
13:00
22°
1015.1 hPa
22%
12.9°
6
Windvlaag: 6.2 m/s
0%
Temp/Neerslag /Baro Onweer/Dauwpunt
    Temp Baro Neerslag Dauwpunt Wind Bewolking  
 06:29     21:02    Daglengte: 14:33 Vandaag
14:00
21°
1012.1 hPa 1.8 mm 19.6°
4
86%
17:00
21°
1012.0 hPa 12.7 mm 19.4°
4
75% warningclass
20:00
20°
1012.0 hPa 10.1 mm 18.1°
3
66% warningclass
23:00
18°
1013.0 hPa   17.3°
3
62%
 06:30     21:00    Daglengte: 14:30 Morgen
02:00
18°
1012.8 hPa   16.9°
2
83%
05:00
18°
1012.5 hPa   16.6°
2
46%
08:00
18°
1012.9 hPa   16.8°
2
34%
11:00
20°
1013.5 hPa   17.0°
3
10%
14:00
23°
1013.5 hPa   17.2°
2
8%
17:00
23°
1013.1 hPa   16.7°
4
2%
20:00
21°
1013.0 hPa   16.2°
3
9%
23:00
18°
1013.7 hPa   14.9°
1
5%
 06:32     20:58    Daglengte: 14:26 Vrijdag 19 Aug
02:00
17°
1013.6 hPa   15.2°
1
4%
05:00
16°
1013.4 hPa   15.6°
2
40%
08:00
18°
1013.8 hPa   16.6°
2
20%
11:00
22°
1013.7 hPa 7.8 mm 17.3°
4
74%
14:00
22°
1014.0 hPa 15.7 mm 17.5°
5
74%
17:00
21°
1013.9 hPa 24.0 mm 16.7°
4
85%
20:00
19°
1014.5 hPa 7.8 mm 15.7°
3
32%
23:00
17°
1015.5 hPa   13.6°
1
0%
 06:34     20:56    Daglengte: 14:22 Zaterdag 20 Aug
02:00
16°
1015.5 hPa   11.6°
1
19%
05:00
15°
1015.6 hPa   11.4°
2
0%
08:00
17°
1015.2 hPa   13.5°
2
0%
11:00
21°
1015.3 hPa   13.8°
5
5%
14:00
21°
1015.3 hPa   14.8°
6
4%
17:00
21°
1016.8 hPa 19.9 mm 10.8°
6
0%
20:00
19°
1016.8 hPa 19.9 mm 13.6°
5
0%
23:00
18°
1016.5 hPa 20.0 mm 13.2°
5
1%
 06:35     20:53    Daglengte: 14:18 Zondag 21 Aug
02:00
18°
1015.9 hPa 20.1 mm 13.3°
5
1%
05:00
17°
1015.3 hPa 20.3 mm 13.8°
4
1%
08:00
18°
1015.5 hPa 20.4 mm 13.3°
3
1%
11:00
19°
1015.5 hPa 21.2 mm 14.8°
5
1%
14:00
20°
1015.5 hPa 21.6 mm 14.0°
6
1%
17:00
20°
1015.3 hPa 22.0 mm 13.6°
5
1%
20:00
19°
1015.0 hPa 22.3 mm 12.6°
5
1%
23:00
17°
1014.8 hPa 22.5 mm 12.9°
4
0%
 06:37     20:51    Daglengte: 14:14 Maandag 22 Aug
02:00
16°
1014.6 hPa 22.6 mm 13.0°
3
0%
05:00
15°
1014.4 hPa 22.6 mm 12.8°
2
0%
08:00
17°
1015.0 hPa 22.6 mm 13.2°
1
0%
11:00
21°
1015.3 hPa 22.6 mm 12.3°
1
1%
14:00
23°
1014.9 hPa 22.6 mm 12.2°
2
1%
17:00
21°
1014.7 hPa 22.7 mm 12.4°
3
1%
20:00
20°
1014.0 hPa 22.7 mm 13.8°
5
1%
23:00
18°
1014.1 hPa 22.7 mm 14.1°
5
1%
 06:39     20:49    Daglengte: 14:10 Dinsdag 23 Aug
02:00
19°
1013.9 hPa 22.7 mm 13.8°
4
1%
05:00
18°
1013.0 hPa 22.7 mm 12.6°
4
1%
08:00
19°
1013.3 hPa 22.7 mm 10.9°
3
1%
11:00
22°
1013.6 hPa 22.7 mm 10.7°
4
1%
14:00
24°
1013.0 hPa 22.7 mm 11.9°
4
1%
17:00
24°
1012.2 hPa 22.7 mm 13.1°
6
1%
20:00
22°
1012.4 hPa 22.7 mm 15.2°
4
1%
23:00
19°
1012.7 hPa 22.8 mm 15.1°
3
1%
 06:40     20:47    Daglengte: 14:07 Woensdag 24 Aug
02:00
18°
1012.0 hPa 25.4 mm 16.6°
4
1%
05:00
18°
1011.7 hPa 25.8 mm 16.9°
3
1%
08:00
19°
1011.8 hPa 25.8 mm 17.2°
4
1%
11:00
20°
1012.5 hPa   18.7°
5
1%
14:00
24°
1012.3 hPa 55.5 mm 18.1°
5
1%
20:00
20°
1012.8 hPa 61.9 mm 17.6°
2
1%
 06:42     20:45    Daglengte: 14:03 Donderdag 25 Aug
02:00
18°
1013.3 hPa 73.2 mm 17.4°
1
1%
08:00
18°
1014.2 hPa 82.7 mm 17.8°
2
1%
14:00
23°
1016.1 hPa 89.0 mm 17.9°
3
1%
20:00
20°
1017.4 hPa 90.9 mm 16.7°
3
0%
 06:44     20:42    Daglengte: 13:58 Vrijdag 26 Aug
02:00
17°
1019.1 hPa 90.9 mm 16.1°
2
0%
08:00
18°
1020.0 hPa 91.0 mm 15.9°
3
0%
14:00
23°
1019.8 hPa 91.0 mm 16.2°
4
1%
20:00
20°
1019.9 hPa 91.1 mm 17.4°
5
1%
 06:45     20:40    Daglengte: 13:55 Zaterdag 27 Aug
02:00
17°
1020.4 hPa 91.1 mm 16.3°
3
1%
08:00
18°
1020.1 hPa   13.5°
3
45%
14:00
23°
1020.2 hPa 0.1 mm 15.4°
3
43%
20:00
21°
1019.9 hPa 0.3 mm 15.1°
5
40%
 06:47     20:38    Daglengte: 13:51 Zondag 28 Aug
02:00
18°
1020.6 hPa 0.2 mm 13.8°
3
43%
08:00
18°
1020.6 hPa 0.1 mm 13.9°
3
46%
14:00
23°
1020.6 hPa 0.6 mm 15.8°
3
48%
20:00
21°
1019.6 hPa 0.2 mm 15.4°
4
40%
 06:49     20:36    Daglengte: 13:47 Maandag 29 Aug
02:00
19°
1020.0 hPa 0.2 mm 14.1°
4
44%
08:00
18°
1019.6 hPa 1.3 mm 14.1°
3
50%
14:00
24°
1019.7 hPa 0.7 mm 16.4°
2
55%
20:00
22°
1018.9 hPa 0.5 mm 15.8°
3
47%
 06:50     20:33    Daglengte: 13:43 Dinsdag 30 Aug
02:00
19°
1019.3 hPa 0.4 mm 14.6°
2
42%
08:00
18°
1019.0 hPa 0.3 mm 14.0°
1
40%
14:00
23°
1019.0 hPa 0.3 mm 15.9°
1
47%
20:00
21°
1018.1 hPa 0.3 mm 15.4°
2
47%
 06:52     20:31    Daglengte: 13:39 Woensdag 31 Aug
02:00
18°
1018.1 hPa 0.2 mm 14.5°
1
43%
08:00
18°
1017.7 hPa 0.2 mm 14.1°
1
46%
14:00
22°
1018.1 hPa 0.2 mm 15.4°
2
53%
20:00
20°
1017.5 hPa 0.3 mm 14.6°
3
47%
 06:54     20:29    Daglengte: 13:35 Donderdag 01 Sep
02:00
18°
1017.7 hPa 0.2 mm 13.2°
1
47%
08:00
17°
1016.9 hPa 0.3 mm 13.2°
0
55%
  CAPE Lifted Index Hail Supercell Tornado SRH 3km CL BTM PRES CL TOP PRES Swiss DWD icon SMHI TS
 06:29     21:02    Daglengte: 14:33 Vandaag
14:00 324 J/kg -1.2 K 0 % 0 % 0 % 0 m²/s² 0 0 -1.2 61
15:00 219 J/kg -0.6 K 0 % 0 % 0 % 0 m²/s² 0 0 -0.39 61
16:00 263 J/kg -0.7 K 0 % 0 % 0 % 0 m²/s² 0 0 -0.52 80
17:00 412 J/kg -1.1 K 0 % 0 % 0 % 0 m²/s² 0 0 -0.98 95
18:00 415 J/kg -1.0 K 0 % 0 % 0 % 0 m²/s² 0 0 -0.79 80
19:00 546 J/kg -1.4 K 0 % 0 % 0 % 0 m²/s² 0 0 -1.28 95
20:00 379 J/kg -1.4 K 0 % 0 % 0 % 0 m²/s² 0 0 -0.35 95
21:00 139 J/kg -0.3 K 0 % 0 % 0 % 0 m²/s² 0 0 0.96 80
22:00 126 J/kg -0.4 K 0 % 0 % 0 % 0 m²/s² 0 0 1.13 3
23:00 121 J/kg -0.4 K 0 % 0 % 0 % 0 m²/s² 0 0 1.58 3
 06:30     21:00    Daglengte: 14:30 Morgen
00:00 0 J/kg -0.2 K 0 % 0 % 0 % 0 m²/s² 0 0 2.17 3
01:00 11 J/kg 0.0 K 0 % 0 % 0 % 0 m²/s² 0 0 2.61 3
02:00 13 J/kg -0.1 K 0 % 0 % 0 % 0 m²/s² 0 0 2.51 3
03:00 16 J/kg 0.3 K 0 % 0 % 0 % 0 m²/s² 0 0 3.06 45
04:00 1 J/kg 0.6 K 0 % 0 % 0 % 0 m²/s² 0 0 3.45 45
05:00 7 J/kg 0.7 K 0 % 0 % 0 % 0 m²/s² 0 0 3.79 45
06:00 9 J/kg 0.4 K 0 % 0 % 0 % 0 m²/s² 0 0 3.25 45
07:00 11 J/kg 0.6 K 0 % 0 % 0 % 0 m²/s² 0 0 3.45 45
08:00 26 J/kg 0.4 K 0 % 0 % 0 % 0 m²/s² 0 0 3.4 45
09:00 50 J/kg 0.5 K 0 % 0 % 0 % 0 m²/s² 0 0 3.59 2
10:00 30 J/kg 0.9 K 0 % 0 % 0 % 0 m²/s² 0 0 3.99 2
11:00 10 J/kg 1.0 K 0 % 0 % 0 % 0 m²/s² 0 0 4.09 2
12:00 15 J/kg 1.2 K 0 % 0 % 0 % 0 m²/s² 0 0 4.47 2
13:00 6 J/kg 1.3 K 0 % 0 % 0 % 0 m²/s² 0 0 4.39 2
14:00 5 J/kg 1.5 K 0 % 0 % 0 % 0 m²/s² 0 0 4.59 2
15:00 4 J/kg 2.1 K 0 % 0 % 0 % 0 m²/s² 0 0 5.19 2
16:00 0 J/kg 3.0 K 0 % 0 % 0 % 0 m²/s² 0 0 6.36 1
17:00 0 J/kg 3.7 K 0 % 0 % 0 % 0 m²/s² 0 0 7.45 1
18:00 0 J/kg 3.8 K 0 % 0 % 0 % 0 m²/s² 0 0 7.64 1
19:00 0 J/kg 4.0 K 0 % 0 % 0 % 0 m²/s² 0 0 7.93 1
20:00 0 J/kg 4.4 K 0 % 0 % 0 % 0 m²/s² 0 0 8.57 0
21:00 0 J/kg 4.1 K 0 % 0 % 0 % 0 m²/s² 0 0 7.76 0
22:00 0 J/kg 4.3 K 0 % 0 % 0 % 0 m²/s² 0 0 7.6 0
23:00 0 J/kg 4.8 K 0 % 0 % 0 % 0 m²/s² 0 0 7.59 0
 06:32     20:58    Daglengte: 14:26 Vrijdag 19 Aug
00:00 0 J/kg 4.9 K 0 % 0 % 0 % 0 m²/s² 0 0 7.51 0
01:00 0 J/kg 4.1 K 0 % 0 % 0 % 0 m²/s² 0 0 6.95 45
02:00 0 J/kg 3.4 K 0 % 0 % 0 % 0 m²/s² 0 0 6.49 45
03:00 0 J/kg 2.7 K 0 % 0 % 0 % 0 m²/s² 0 0 6.06 45
04:00 0 J/kg 2.5 K 0 % 0 % 0 % 0 m²/s² 0 0 6.22 3
05:00 0 J/kg 1.9 K 0 % 0 % 0 % 0 m²/s² 0 0 4.99 3
06:00 0 J/kg 1.3 K 0 % 0 % 0 % 0 m²/s² 0 0 3.49 3
07:00 0 J/kg 0.4 K 0 % 0 % 0 % 0 m²/s² 0 0 2.02 2
08:00 0 J/kg 0.9 K 0 % 0 % 0 % 0 m²/s² 0 0 2.16 2
09:00 0 J/kg 0.7 K 0 % 0 % 0 % 0 m²/s² 0 0 1.9 2
10:00 256 J/kg -0.9 K 0 % 0 % 0 % 0 m²/s² 0 0 0.15 3
11:00 226 J/kg -0.8 K 0 % 0 % 0 % 0 m²/s² 0 0 0.07 80
12:00 196 J/kg -0.9 K 0 % 0 % 0 % 0 m²/s² 0 0 0.06 3
13:00 182 J/kg -0.9 K 0 % 0 % 0 % 0 m²/s² 0 0 -0.09 3
14:00 202 J/kg -0.9 K 0 % 0 % 0 % 0 m²/s² 0 0 -0.33 80
15:00 133 J/kg -0.6 K 0 % 0 % 0 % 0 m²/s² 0 0 0.12 80
16:00 17 J/kg 0.3 K 0 % 0 % 0 % 0 m²/s² 0 0 1.47 3
17:00 0 J/kg 1.1 K 0 % 0 % 0 % 0 m²/s² 0 0 3.2 80
18:00 6 J/kg 0.9 K 0 % 0 % 0 % 0 m²/s² 0 0 4.32 80
19:00 12 J/kg 1.0 K 0 % 0 % 0 % 0 m²/s² 0 0 6.61 2
20:00 0 J/kg 1.9 K 0 % 0 % 0 % 0 m²/s² 0 0 9.43 3
21:00 0 J/kg 2.7 K 0 % 0 % 0 % 0 m²/s² 0 0 12.66 3
22:00 0 J/kg 3.6 K 0 % 0 % 0 % 0 m²/s² 0 0 13.11 3
23:00 0 J/kg 4.5 K 0 % 0 % 0 % 0 m²/s² 0 0 12.57 2
 06:34     20:56    Daglengte: 14:22 Zaterdag 20 Aug
00:00 0 J/kg 4.9 K 0 % 0 % 0 % 0 m²/s² 0 0 11.11 3
01:00 0 J/kg 5.3 K 0 % 0 % 0 % 0 m²/s² 0 0 10.31 3
02:00 0 J/kg 5.4 K 0 % 0 % 0 % 0 m²/s² 0 0 10.05 3
03:00 0 J/kg 5.4 K 0 % 0 % 0 % 0 m²/s² 0 0 9.93 3
04:00 0 J/kg 4.9 K 0 % 0 % 0 % 0 m²/s² 0 0 9.19 2
05:00 0 J/kg 4.5 K 0 % 0 % 0 % 0 m²/s² 0 0 8.79 1
06:00 0 J/kg 3.8 K 0 % 0 % 0 % 0 m²/s² 0 0 7.97 1
07:00 0 J/kg 3.5 K 0 % 0 % 0 % 0 m²/s² 0 0 7.58 1
08:00 0 J/kg 5.0 K 0 % 0 % 0 % 0 m²/s² 0 0 9.05 1
09:00 0 J/kg 4.8 K 0 % 0 % 0 % 0 m²/s² 0 0 8.76 1
10:00 17 J/kg 3.0 K 0 % 0 % 0 % 0 m²/s² 0 0 6.84 1
11:00 53 J/kg 2.2 K 0 % 0 % 0 % 0 m²/s² 0 0 6.07 1
12:00 62 J/kg 1.8 K 0 % 0 % 0 % 0 m²/s² 0 0 5.37 1
13:00 42 J/kg 2.0 K 0 % 0 % 0 % 0 m²/s² 0 0 5.3 1
Temp Baro Wind Neerslag
  EWN Forecast EWN WRFDA DWD ICON FMI HIRLAM MET Norway GFS
 06:29     21:02    Daglengte: 14:33 Vandaag
14:00 20.9° 1012.1 hPa 3.9 m/s 1.8 mm 19.5° 1013.4 hPa 3.0 m/s 3.2 mm 20.8° 1012.1 hPa 4.3 m/s 2.7 mm 21.2° 1011.9 hPa 3.5 m/s 0.0 mm 18.3° 1012.8 hPa 4.6 m/s
17:00 20.6° 1012.0 hPa 4.2 m/s 12.7 mm 19.5° 1013.3 hPa 3.6 m/s 56.7 mm 21.1° 1012.1 hPa 2.7 m/s 1.3 mm 20.8° 1011.3 hPa 4.6 m/s 0.0 mm 18.5° 1012.7 hPa 2.0 m/s
20:00 19.6° 1012.0 hPa 3.5 m/s 10.1 mm 19.5° 1013.0 hPa 3.6 m/s 67.6 mm 19.8° 1012.1 hPa 2.1 m/s 2.8 mm 19.8° 1011.4 hPa 4.1 m/s 0.0 mm 18.6° 1012.7 hPa 2.3 m/s
23:00 18.4° 1013.0 hPa 2.6 m/s 0.0 mm 17.1° 1013.7 hPa 2.4 m/s 68.2 mm 18.5° 1013.0 hPa 1.9 m/s 0.9 mm 18.9° 1013.0 hPa 3.2 m/s 0.0 mm 16.9° 1013.9 hPa 2.4 m/s
 06:30     21:00    Daglengte: 14:30 Morgen
02:00 17.9° 1012.8 hPa 1.8 m/s 0.0 mm 15.5° 1013.5 hPa 2.0 m/s 68.3 mm 18.3° 1013.1 hPa 1.2 m/s 0.0 mm 18.1° 1012.7 hPa 2.4 m/s 0.0 mm 16.6° 1013.6 hPa 2.5 m/s
05:00 17.5° 1012.5 hPa 2.0 m/s 0.0 mm 15.5° 1012.3 hPa 2.5 m/s 68.3 mm 18.0° 1012.6 hPa 1.2 m/s 0.0 mm 17.5° 1012.5 hPa 2.2 m/s 0.0 mm 15.8° 1013.4 hPa 1.8 m/s
08:00 17.9° 1012.9 hPa 2.1 m/s 0.0 mm 18.0° 1012.9 hPa 2.1 m/s 68.3 mm 18.2° 1013.2 hPa 0.6 m/s 0.0 mm 17.7° 1012.9 hPa 2.3 m/s 0.0 mm 17.2° 1014.3 hPa 1.5 m/s
11:00 20.5° 1013.5 hPa 3.1 m/s 0.0 mm 20.9° 1013.0 hPa 4.6 m/s 69.1 mm 21.7° 1013.4 hPa 1.0 m/s 0.0 mm 19.3° 1013.7 hPa 3.4 m/s 0.0 mm 21.2° 1014.7 hPa 2.8 m/s
14:00 22.8° 1013.5 hPa 2.3 m/s 0.0 mm 22.3° 1012.9 hPa 4.6 m/s 69.2 mm 23.1° 1013.4 hPa 1.9 m/s 0.0 mm 21.2° 1013.9 hPa 3.3 m/s 0.0 mm 21.3° 1014.6 hPa 2.9 m/s
17:00 22.7° 1013.1 hPa 3.8 m/s 0.0 mm 21.4° 1012.5 hPa 5.1 m/s 69.2 mm 23.1° 1013.0 hPa 3.7 m/s 0.0 mm 21.4° 1013.6 hPa 3.5 m/s 0.0 mm 23.5° 1013.6 hPa 2.3 m/s
20:00 21.2° 1013.0 hPa 2.7 m/s 0.0 mm 19.3° 1011.9 hPa 3.7 m/s 69.2 mm 21.7° 1012.7 hPa 2.2 m/s 0.0 mm 19.6° 1013.7 hPa 2.9 m/s 0.0 mm 21.0° 1013.5 hPa 2.9 m/s
23:00 18.2° 1013.7 hPa 1.3 m/s 0.0 mm 15.6° 1012.8 hPa 1.3 m/s 69.2 mm 18.4° 1013.4 hPa 1.3 m/s 0.0 mm 18.1° 1014.6 hPa 1.2 m/s 0.0 mm 17.3° 1014.2 hPa 2.5 m/s
 06:32     20:58    Daglengte: 14:26 Vrijdag 19 Aug
02:00 16.5° 1013.6 hPa 1.0 m/s 0.0 mm 15.0° 1012.2 hPa 0.1 m/s 69.2 mm 17.2° 1013.1 hPa 1.1 m/s 0.0 mm 15.6° 1014.4 hPa 0.7 m/s 0.0 mm 16.2° 1014.1 hPa 3.0 m/s
05:00 16.0° 1013.4 hPa 1.9 m/s 0.0 mm 14.9° 1012.0 hPa 2.2 m/s 69.2 mm 17.9° 1012.7 hPa 1.8 m/s 0.0 mm 14.7° 1013.9 hPa 1.4 m/s 0.0 mm 15.7° 1013.3 hPa 2.8 m/s
08:00 17.8° 1013.8 hPa 2.3 m/s 0.0 mm 18.3° 1011.9 hPa 3.8 m/s 69.2 mm 19.0° 1013.2 hPa 1.5 m/s 0.0 mm 15.8° 1014.1 hPa 1.8 m/s 0.0 mm 18.0° 1013.5 hPa 2.3 m/s
11:00 21.7° 1013.7 hPa 4.4 m/s 7.8 mm 21.8° 1012.5 hPa 4.3 m/s 69.2 mm 22.1° 1013.6 hPa 3.5 m/s 0.2 mm 23.0° 1013.9 hPa 3.1 m/s
14:00 21.9° 1014.0 hPa 4.9 m/s 15.7 mm 21.6° 1013.1 hPa 5.5 m/s 69.2 mm 22.0° 1013.9 hPa 4.0 m/s 0.6 mm 22.6° 1014.0 hPa 5.2 m/s
17:00 20.9° 1013.9 hPa 4.5 m/s 24.0 mm 20.1° 1013.7 hPa 5.8 m/s 69.2 mm 20.9° 1013.4 hPa 3.4 m/s 1.5 mm 21.0° 1014.6 hPa 4.4 m/s
20:00 19.4° 1014.5 hPa 3.3 m/s 7.8 mm 18.8° 1014.6 hPa 4.2 m/s 69.2 mm 20.2° 1013.2 hPa 2.5 m/s 0.3 mm 19.2° 1015.5 hPa 4.3 m/s
23:00 16.8° 1015.5 hPa 1.4 m/s 0.0 mm 14.9° 1015.5 hPa 1.8 m/s 69.2 mm 18.3° 1014.0 hPa 1.1 m/s 0.0 mm 16.2° 1016.2 hPa 2.8 m/s
 06:34     20:56    Daglengte: 14:22 Zaterdag 20 Aug
02:00 15.6° 1015.5 hPa 1.3 m/s 0.0 mm 14.2° 1015.6 hPa 0.8 m/s 69.2 mm 18.2° 1014.0 hPa 2.5 m/s 0.0 mm 15.2° 1016.7 hPa 1.2 m/s
05:00 14.6° 1015.6 hPa 2.0 m/s 0.0 mm 13.2° 1015.6 hPa 1.8 m/s 69.2 mm 17.0° 1014.2 hPa 2.0 m/s 0.0 mm 14.7° 1016.7 hPa 1.0 m/s
08:00 17.0° 1015.2 hPa 1.7 m/s 0.0 mm 16.2° 1016.1 hPa 2.7 m/s 69.2 mm 17.2° 1015.0 hPa 1.4 m/s 0.0 mm 16.8° 1016.5 hPa 2.1 m/s
11:00 20.7° 1015.3 hPa 4.6 m/s 0.0 mm 20.6° 1015.7 hPa 3.4 m/s 69.2 mm 20.8° 1015.2 hPa 4.8 m/s 0.0 mm 19.9° 1016.3 hPa 3.7 m/s
14:00 21.1° 1015.3 hPa 6.4 m/s 0.0 mm 21.4° 1015.6 hPa 5.5 m/s 69.2 mm 21.0° 1015.2 hPa 6.7 m/s 0.0 mm 22.0° 1016.1 hPa 6.5 m/s
17:00 20.6° 1016.8 hPa 5.8 m/s 19.9 mm 20.6° 1016.8 hPa 5.8 m/s 19.9 mm
20:00 19.2° 1016.8 hPa 5.1 m/s 19.9 mm 19.2° 1016.8 hPa 5.1 m/s 19.9 mm
23:00 18.5° 1016.5 hPa 5.0 m/s 20.0 mm 18.5° 1016.5 hPa 5.0 m/s 20.0 mm
 06:35     20:53    Daglengte: 14:18 Zondag 21 Aug
02:00 18.1° 1015.9 hPa 4.6 m/s 20.1 mm 18.1° 1015.9 hPa 4.6 m/s 20.1 mm
05:00 17.4° 1015.3 hPa 3.6 m/s 20.3 mm 17.4° 1015.3 hPa 3.6 m/s 20.3 mm
08:00 18.0° 1015.5 hPa 2.6 m/s 20.4 mm 18.0° 1015.5 hPa 2.6 m/s 20.4 mm
11:00 18.7° 1015.5 hPa 5.1 m/s 21.2 mm 18.7° 1015.5 hPa 5.1 m/s 21.2 mm
14:00 20.0° 1015.5 hPa 5.8 m/s 21.6 mm 20.0° 1015.5 hPa 5.8 m/s 21.6 mm
17:00 20.0° 1015.3 hPa 4.8 m/s 22.0 mm 20.0° 1015.3 hPa 4.8 m/s 22.0 mm
20:00 18.8° 1015.0 hPa 4.6 m/s 22.3 mm 18.8° 1015.0 hPa 4.6 m/s 22.3 mm
23:00 16.7° 1014.8 hPa 4.1 m/s 22.5 mm 16.7° 1014.8 hPa 4.1 m/s 22.5 mm
 06:37     20:51    Daglengte: 14:14 Maandag 22 Aug
02:00 16.1° 1014.6 hPa 2.7 m/s 22.6 mm 16.1° 1014.6 hPa 2.7 m/s 22.6 mm
05:00 15.4° 1014.4 hPa 1.8 m/s 22.6 mm 15.4° 1014.4 hPa 1.8 m/s 22.6 mm
08:00 17.2° 1015.0 hPa 0.6 m/s 22.6 mm 17.2° 1015.0 hPa 0.6 m/s 22.6 mm
11:00 21.4° 1015.3 hPa 0.9 m/s 22.6 mm 21.4° 1015.3 hPa 0.9 m/s 22.6 mm
14:00 23.1° 1014.9 hPa 2.2 m/s 22.6 mm 23.1° 1014.9 hPa 2.2 m/s 22.6 mm
17:00 21.5° 1014.7 hPa 2.9 m/s 22.7 mm 21.5° 1014.7 hPa 2.9 m/s 22.7 mm
20:00 19.7° 1014.0 hPa 5.1 m/s 22.7 mm 19.7° 1014.0 hPa 5.1 m/s 22.7 mm
23:00 17.5° 1014.1 hPa 4.8 m/s 22.7 mm 17.5° 1014.1 hPa 4.8 m/s 22.7 mm
 06:39     20:49    Daglengte: 14:10 Dinsdag 23 Aug
02:00 18.6° 1013.9 hPa 3.8 m/s 22.7 mm 18.6° 1013.9 hPa 3.8 m/s 22.7 mm
05:00 17.6° 1013.0 hPa 3.6 m/s 22.7 mm 17.6° 1013.0 hPa 3.6 m/s 22.7 mm
08:00 18.8° 1013.3 hPa 3.0 m/s 22.7 mm 18.8° 1013.3 hPa 3.0 m/s 22.7 mm
11:00 22.2° 1013.6 hPa 3.7 m/s 22.7 mm 22.2° 1013.6 hPa 3.7 m/s 22.7 mm
14:00 23.9° 1013.0 hPa 4.5 m/s 22.7 mm 23.9° 1013.0 hPa 4.5 m/s 22.7 mm
17:00 24.2° 1012.2 hPa 5.8 m/s 22.7 mm 24.2° 1012.2 hPa 5.8 m/s 22.7 mm
20:00 21.7° 1012.4 hPa 3.6 m/s 22.7 mm 21.7° 1012.4 hPa 3.6 m/s 22.7 mm
23:00 19.2° 1012.7 hPa 3.3 m/s 22.8 mm 19.2° 1012.7 hPa 3.3 m/s 22.8 mm
 06:40     20:47    Daglengte: 14:07 Woensdag 24 Aug
02:00 17.6° 1012.0 hPa 3.7 m/s 25.4 mm 17.6° 1012.0 hPa 3.7 m/s 25.4 mm
05:00 18.4° 1011.7 hPa 3.4 m/s 25.8 mm 18.4° 1011.7 hPa 3.4 m/s 25.8 mm
08:00 18.7° 1011.8 hPa 3.8 m/s 25.8 mm 18.7° 1011.8 hPa 3.8 m/s 25.8 mm
11:00 20.4° 1012.5 hPa 4.6 m/s 27.4 mm 20.4° 1012.5 hPa 4.6 m/s 27.4 mm
14:00 23.8° 1012.3 hPa 5.1 m/s 28.2 mm 23.8° 1012.3 hPa 5.1 m/s 28.2 mm
20:00 19.7° 1012.8 hPa 1.8 m/s 32.6 mm 19.7° 1012.8 hPa 1.8 m/s 32.6 mm
 06:42     20:45    Daglengte: 14:03 Donderdag 25 Aug
02:00 17.9° 1013.3 hPa 0.7 m/s 39.0 mm 17.9° 1013.3 hPa 0.7 m/s 39.0 mm
08:00 18.1° 1014.2 hPa 2.4 m/s 41.9 mm 18.1° 1014.2 hPa 2.4 m/s 41.9 mm
14:00 22.7° 1016.1 hPa 3.3 m/s 45.3 mm 22.7° 1016.1 hPa 3.3 m/s 45.3 mm
20:00 20.2° 1017.4 hPa 2.6 m/s 45.5 mm 20.2° 1017.4 hPa 2.6 m/s 45.5 mm
 06:44     20:42    Daglengte: 13:58 Vrijdag 26 Aug
02:00 17.3° 1019.1 hPa 2.4 m/s 45.5 mm 17.3° 1019.1 hPa 2.4 m/s 45.5 mm
08:00 17.7° 1020.0 hPa 2.6 m/s 45.5 mm 17.7° 1020.0 hPa 2.6 m/s 45.5 mm
14:00 22.5° 1019.8 hPa 4.5 m/s 45.6 mm 22.5° 1019.8 hPa 4.5 m/s 45.6 mm
20:00 19.6° 1019.9 hPa 4.5 m/s 45.6 mm 19.6° 1019.9 hPa 4.5 m/s 45.6 mm
 06:45     20:40    Daglengte: 13:55 Zaterdag 27 Aug
02:00 17.4° 1020.4 hPa 3.4 m/s 45.6 mm 17.4° 1020.4 hPa 3.4 m/s 45.6 mm
08:00 17.9° 1020.1 hPa 2.7 m/s 0.0 mm
14:00 22.9° 1020.2 hPa 3.3 m/s 0.1 mm
20:00 21.1° 1019.9 hPa 4.7 m/s 0.3 mm
 06:47     20:38    Daglengte: 13:51 Zondag 28 Aug
02:00 18.3° 1020.6 hPa 3.2 m/s 0.2 mm
08:00 17.9° 1020.6 hPa 3.0 m/s 0.1 mm
14:00 23.1° 1020.6 hPa 3.0 m/s 0.6 mm
20:00 21.5° 1019.6 hPa 4.4 m/s 0.2 mm
 06:49     20:36    Daglengte: 13:47 Maandag 29 Aug
02:00 18.6° 1020.0 hPa 3.6 m/s 0.2 mm
08:00 18.1° 1019.6 hPa 3.0 m/s 1.3 mm
14:00 23.5° 1019.7 hPa 1.7 m/s 0.7 mm
20:00 21.6° 1018.9 hPa 2.8 m/s 0.5 mm
 06:50     20:33    Daglengte: 13:43 Dinsdag 30 Aug
02:00 18.6° 1019.3 hPa 1.7 m/s 0.4 mm
08:00 18.2° 1019.0 hPa 1.0 m/s 0.3 mm
14:00 23.0° 1019.0 hPa 1.3 m/s 0.3 mm
20:00 20.5° 1018.1 hPa 2.4 m/s 0.3 mm
 06:52     20:31    Daglengte: 13:39 Woensdag 31 Aug
02:00 18.1° 1018.1 hPa 0.8 m/s 0.2 mm
08:00 17.8° 1017.7 hPa 0.9 m/s 0.2 mm
14:00 21.9° 1018.1 hPa 2.3 m/s 0.2 mm
20:00 19.7° 1017.5 hPa 2.8 m/s 0.3 mm
 06:54     20:29    Daglengte: 13:35 Donderdag 01 Sep
02:00 17.6° 1017.7 hPa 1.2 m/s 0.2 mm
08:00 17.2° 1016.9 hPa 0.4 m/s 0.3 mm
FMI Hirlam - 7.5 km EWN WRFDA - 12 km DWD ICON - 7 km GFS - 25 km Basiskaart






























































Updatetijd (Europe/Amsterdam) Resolutie Lengte Stap
FMI Hirlam 07:15, 13:15, 19:15, 01:15 7.5 km 49h 1h
EWN WRFDA 10:15, 16:15, 22:15, 04:15 12 km 73h 1h
DWD ICON 11:45, 17:45, 23:45, 05:45 7 km 75h 1h
GFS 08:15, 14:15, 20:15, 02:15 25 km 237h 3h
30+ mm
25-30 mm
20-25 mm
15-20 mm
10-15 mm
6-10 mm
4-6 mm
2-4 mm
1-2 mm
0.5-1 mm
0.2-0.5 mm
0.1-0.2 mm
30+ mm
25-30 mm
20-25 mm
15-20 mm
10-15 mm
6-10 mm
4-6 mm
2-4 mm
1-2 mm
0.5-1 mm
0.2-0.5 mm
0.1-0.2 mm
Sneeuwval
Natte sneeuw
Hagel
Vorst
30+ mm
25-30 mm
20-25 mm
15-20 mm
10-15 mm
6-10 mm
4-6 mm
2-4 mm
1-2 mm
0.5-1 mm
0.2-0.5 mm
0.1-0.2 mm
Sneeuwval
Natte sneeuw
Hagel
Vorst
Onweer
50 mm
40 mm
30 mm
26 mm
22 mm
18 mm
14 mm
10 mm
9 mm
8 mm
7 mm
6 mm
5 mm
4.5 mm
4 mm
3.5 mm
3 mm
2.5 mm
2 mm
1.5 mm
1 mm
0.8 mm
0.6 mm
0.4 mm
0.2 mm
0.05 mm
35°
30°
25°
20°
15°
10°
-5°
-10°
-15°
-20°
-25°
-30°
-35°
33> m/s
29 m/s
25 m/s
21 m/s
17 m/s
14 m/s
11 m/s
8 m/s
5 m/s
3 m/s
0 m/s
2600 J/kg
2400 J/kg
2200 J/kg
2000 J/kg
1800 J/kg
1600 J/kg
1400 J/kg
1200 J/kg
1000 J/kg
800 J/kg
600 J/kg
400 J/kg
200 J/kg
70 dBZ
65 dBZ
60 dBZ
55 dBZ
50 dBZ
45 dBZ
40 dBZ
35 dBZ
30 dBZ
25 dBZ
20 dBZ
15 dBZ
10 dBZ
5 dBZ
-1 K
-2 K
-3 K
-4 K
-5 K
-6 K
-7 K
-8 K
-9 K
950 m²/s²
900 m²/s²
850 m²/s²
800 m²/s²
750 m²/s²
700 m²/s²
650 m²/s²
600 m²/s²
550 m²/s²
500 m²/s²
450 m²/s²
400 m²/s²
350 m²/s²
300 m²/s²
250 m²/s²
200 m²/s²
150 m²/s²
100 m²/s²
46 m/s
44 m/s
42 m/s
40 m/s
38 m/s
36 m/s
34 m/s
32 m/s
30 m/s
28 m/s
26 m/s
24 m/s
22 m/s
20 m/s
16 m/s
12 m/s
8 m/s
4 m/s
30 m/s
28 m/s
26 m/s
24 m/s
22 m/s
20 m/s
18 m/s
16 m/s
14 m/s
12 m/s
10 m/s
8 m/s
6 m/s
4 m/s
2 m/s
3.0
2.8
2.6
2.4
2.2
2.0
1.8
1.6
1.4
1.2
1.0
0.8
0.6
0.4
0.2
15
14
13
12
11
10
9
8
7
6
5
4
3
2
1
90%
80%
70%
60%
50%
40%
30%
20%
10%
42
40
38
36
34
32
30
28
26
24
22
20
18
16
14
12
90+ cm
80-90 cm
70-80 cm
60-70 cm
50-60 cm
40-50 cm
30-40 cm
20-30 cm
10-20 cm
1-10 cm
Sneeuwval
Natte sneeuw
Regen
>120 mm
115 mm
110 mm
105 mm
100 mm
95 mm
90 mm
85 mm
80 mm
75 mm
70 mm
65 mm
60 mm
55 mm
50 mm
45 mm
45 mm
40 mm
35 mm
30 mm
25 mm
20 mm
15 mm
10 mm
5 mm
0.1 mm
960 hPa
880 hPa
800 hPa
720 hPa
640 hPa
560 hPa
584 gpdm
568 gpdm
552 gpdm
536 gpdm
520 gpdm
504 gpdm
488 gpdm
Extreem zwaar Noodweer Kans op onweer
15% 15% 5% 50% 15%

Dag




Kaart






35°
30°
25°
20°
15°
10°
-5°
-10°
-15°
-20°
-25°
-30°
-35°
33> m/s
29 m/s
25 m/s
21 m/s
17 m/s
14 m/s
11 m/s
8 m/s
5 m/s
3 m/s
0 m/s
Extreem zwaar Noodweer Kans op onweer
15% 15% 5% 50% 15%
>120 mm
115 mm
110 mm
105 mm
100 mm
95 mm
90 mm
85 mm